Location: *
(46.1333°S, 161.2167°W)
Time: 04:09:35
(UTC+00:00)

USA 267 - Pass Details

Date: 15 July 2020
Orbit: 1102 x 1106 km, 123.0° (Epoch: 09 August)

Event Time Altitude Azimuth Distance (km) Brightness Sun altitude
Rises 16:58:16 0° 127° (SE) 3,957 6.7 -14.0°
Reaches altitude 10° 17:00:48 10° 130° (SE) 2,996 6.0 -13.6°
Maximum altitude 17:07:17 61° 208° (SSW) 1,259 3.4 -12.5°
Drops below altitude 10° 17:13:45 10° 286° (WNW) 2,978 5.0 -11.5°
Enters shadow 17:14:38 - 287° (WNW) 3,311 5.3 -11.3°
